Location: Thompson
(55.7500°N, 97.8670°W)
Time: 14:26:26
(UTC-05:00)

Cosmos 1666 - Visible Passes

Search period start: 21 September 2017 00:00
Search period end: 01 October 2017 00:00
Orbit: 499 x 526 km, 82.5° (Epoch: 20 September)

Date Brightness Start Highest point End Pass type
(mag) Time Alt. Az. Time Alt. Az. Time Alt. Az.
21 Sep 6.3 04:15:17 10° NE 04:16:12 11° NE 04:17:07 10° ENE visible
21 Sep 3.0 05:48:53 10° N 05:52:39 68° ENE 05:56:24 10° SSE visible
22 Sep 3.4 05:32:56 10° N 05:36:41 56° ENE 05:40:23 10° SSE visible
22 Sep 6.4 21:09:20 10° WNW 21:10:12 11° NW 21:11:04 10° NW visible
23 Sep 3.7 05:17:01 10° N 05:20:41 47° ENE 05:24:21 10° SSE visible
23 Sep 6.1 20:52:30 10° W 20:54:07 12° WNW 20:55:44 10° NNW visible
24 Sep 4.1 05:01:07 10° N 05:04:42 39° ENE 05:08:16 10° SE visible
24 Sep 3.8 06:37:06 10° NW 06:40:11 24° W 06:43:16 10° SW visible
24 Sep 5.9 20:35:58 10° W 20:38:03 14° WNW 20:40:08 10° NNW visible
25 Sep 4.4 04:45:13 10° N 04:48:42 33° ENE 04:52:09 10° SE visible
25 Sep 3.5 06:21:01 10° NNW 06:24:17 28° W 06:27:33 10° SSW visible
25 Sep 5.8 20:19:33 10° W 20:21:59 16° WNW 20:24:26 10° NNW visible
26 Sep 4.7 04:29:21 10° N 04:32:41 29° ENE 04:36:01 10° SE visible
26 Sep 3.3 06:04:57 10° NNW 06:08:23 33° W 06:11:49 10° SSW visible
26 Sep 5.7 20:03:13 10° WSW 20:05:56 19° WNW 20:08:40 10° NNW visible
27 Sep 4.9 04:13:29 10° N 04:16:39 25° ENE 04:19:49 10° ESE visible
27 Sep 3.0 05:48:54 10° NNW 05:52:28 40° W 05:56:02 10° SSW visible
27 Sep 5.6 19:46:56 10° WSW 19:49:53 22° WNW 19:52:52 10° NNW visible
28 Sep 5.2 03:57:39 10° NNE 04:00:38 21° ENE 04:03:35 10° ESE visible
28 Sep 2.8 05:32:52 10° NNW 05:36:32 48° W 05:39:15 17° SSW visible
29 Sep 5.3 03:41:51 10° NNE 03:44:34 19° ENE 03:46:36 13° E visible
29 Sep 2.6 05:16:52 10° NNW 05:20:36 58° W 05:21:26 45° SSW visible
30 Sep 5.4 03:26:05 10° NNE 03:28:31 16° ENE 03:29:23 15° ENE visible
30 Sep 2.7 05:00:52 10° NNW 05:04:15 64° NW 05:04:15 64° NW visible
